When you browse on this site, cookies collect data to enhance your experience and personalize the content and advertising you see.
Visit our Privacy Policy to learn more. By continuing to use the site, you agree to this use of cookies and data.
  • In Lithuania
  • List of Countries
  • For 7 days
  • Water Temperature
  • Weather Map
  • Weather Widgets
  • user-avatar
    Login

    Hourly Weather Mazari Sharif

    Today, 14 December, Saturday

    Time Temperature Precipitation Wind Pressure Humidity
    00:00 +1°C° 0 mm 0 mps 655 mmHg 75%
    01:00 +2°C° 0 mm 1 mps 655 mmHg 74%
    02:00 +1°C° 0 mm 0 mps 655 mmHg 75%
    03:00 +1°C° 0 mm 0 mps 655 mmHg 75%
    04:00 0°C° 0 mm 0 mps 655 mmHg 75%
    05:00 0°C° 0 mm 0 mps 655 mmHg 75%
    06:00 +1°C° 0 mm 0 mps 656 mmHg 75%
    07:00 +1°C° 0 mm 0 mps 656 mmHg 75%
    08:00 +3°C° 0 mm 1 mps 657 mmHg 68%
    09:00 +4°C° 0 mm 1 mps 657 mmHg 61%
    10:00 +6°C° 0 mm 1 mps 658 mmHg 53%
    11:00 +6°C° 0 mm 1 mps 658 mmHg 51%
    12:00 +6°C° 0 mm 2 mps 658 mmHg 50%
    13:00 +6°C° 0 mm 2 mps 658 mmHg 48%
    14:00 +5°C° 0 mm 2 mps 658 mmHg 52%
    15:00 +5°C° 0 mm 2 mps 657 mmHg 55%
    16:00 +5°C° 0 mm 1 mps 657 mmHg 59%
    17:00 +4°C° 0 mm 1 mps 658 mmHg 61%
    18:00 +4°C° 0 mm 1 mps 658 mmHg 63%
    19:00 +2°C° 0 mm 0 mps 658 mmHg 65%
    20:00 +2°C° 0 mm 0 mps 658 mmHg 65%
    21:00 +3°C° 0 mm 1 mps 658 mmHg 65%
    22:00 +3°C° 0 mm 1 mps 658 mmHg 65%
    23:00 +2°C° 0 mm 1 mps 658 mmHg 66%

    Tomorrow, 15 December, Sunday

    Time Temperature Precipitation Wind Pressure Humidity
    00:00 +2°C° 0 mm 1 mps 658 mmHg 67%
    01:00 +2°C° 0 mm 1 mps 658 mmHg 68%
    02:00 +2°C° 0 mm 1 mps 658 mmHg 69%
    03:00 +2°C° 0 mm 1 mps 658 mmHg 69%
    04:00 +1°C° 0 mm 1 mps 657 mmHg 69%
    05:00 +1°C° 0 mm 1 mps 657 mmHg 68%
    06:00 0°C° 0 mm 0 mps 657 mmHg 67%
    07:00 0°C° 0 mm 0 mps 657 mmHg 66%
    08:00 +3°C° 0 mm 1 mps 658 mmHg 57%
    09:00 +5°C° 0 mm 1 mps 658 mmHg 49%
    10:00 +6°C° 0 mm 1 mps 658 mmHg 41%
    11:00 +7°C° 0 mm 1 mps 658 mmHg 41%
    12:00 +6°C° 0 mm 2 mps 657 mmHg 40%
    13:00 +7°C° 0 mm 2 mps 657 mmHg 40%
    14:00 +6°C° 0 mm 2 mps 656 mmHg 46%
    15:00 +6°C° 0 mm 1 mps 656 mmHg 51%
    16:00 +5°C° 0 mm 1 mps 656 mmHg 57%
    17:00 +5°C° 0 mm 1 mps 656 mmHg 57%
    18:00 +4°C° 0 mm 1 mps 656 mmHg 57%
    19:00 +2°C° 0 mm 0 mps 656 mmHg 57%
    20:00 +2°C° 0 mm 0 mps 656 mmHg 55%
    21:00 +2°C° 0 mm 0 mps 656 mmHg 52%
    22:00 +2°C° 0 mm 0 mps 656 mmHg 49%
    23:00 +2°C° 0 mm 0 mps 656 mmHg 47%

    Day after tomorrow, 16 December, Monday

    Time Temperature Precipitation Wind Pressure Humidity
    00:00 +2°C° 0 mm 0 mps 656 mmHg 45%
    01:00 +1°C° 0 mm 0 mps 656 mmHg 43%
    02:00 +1°C° 0 mm 0 mps 656 mmHg 41%
    03:00 +3°C° 0 mm 1 mps 656 mmHg 39%
    04:00 +3°C° 0 mm 1 mps 656 mmHg 38%
    05:00 +3°C° 0 mm 1 mps 656 mmHg 37%
    06:00 +3°C° 0 mm 1 mps 656 mmHg 37%
    07:00 +3°C° 0 mm 1 mps 657 mmHg 36%
    08:00 +5°C° 0 mm 1 mps 657 mmHg 32%
    09:00 +7°C° 0 mm 1 mps 658 mmHg 28%
    10:00 +9°C° 0 mm 1 mps 659 mmHg 24%
    11:00 +10°C° 0 mm 1 mps 659 mmHg 25%
    12:00 +10°C° 0 mm 1 mps 658 mmHg 26%
    13:00 +10°C° 0 mm 2 mps 658 mmHg 27%
    14:00 +9°C° 0 mm 1 mps 658 mmHg 33%
    15:00 +8°C° 0 mm 1 mps 657 mmHg 38%
    16:00 +7°C° 0 mm 1 mps 657 mmHg 44%
    17:00 +7°C° 0 mm 1 mps 657 mmHg 44%
    18:00 +6°C° 0 mm 1 mps 657 mmHg 44%
    19:00 +6°C° 0 mm 1 mps 657 mmHg 44%
    20:00 +6°C° 0 mm 1 mps 658 mmHg 43%
    21:00 +5°C° 0 mm 1 mps 658 mmHg 42%
    22:00 +5°C° 0 mm 1 mps 658 mmHg 41%
    23:00 +5°C° 0 mm 1 mps 658 mmHg 40%

    17 December, Tuesday

    Time Temperature Precipitation Wind Pressure Humidity
    00:00 +5°C° 0 mm 1 mps 658 mmHg 40%
    01:00 +5°C° 0 mm 1 mps 658 mmHg 39%
    02:00 +5°C° 0 mm 1 mps 658 mmHg 39%
    03:00 +5°C° 0 mm 1 mps 658 mmHg 39%
    04:00 +5°C° 0 mm 1 mps 658 mmHg 39%
    05:00 +5°C° 0 mm 1 mps 658 mmHg 40%
    06:00 +5°C° 0 mm 1 mps 658 mmHg 41%
    07:00 +5°C° 0 mm 1 mps 659 mmHg 41%
    08:00 +7°C° 0 mm 1 mps 659 mmHg 37%
    09:00 +8°C° 0 mm 1 mps 660 mmHg 33%
    10:00 +10°C° 0 mm 1 mps 660 mmHg 28%
    11:00 +11°C° 0 mm 1 mps 659 mmHg 28%
    12:00 +11°C° 0 mm 1 mps 659 mmHg 28%
    13:00 +10°C° 0 mm 2 mps 658 mmHg 28%
    14:00 +10°C° 0 mm 1 mps 658 mmHg 32%
    15:00 +9°C° 0 mm 1 mps 658 mmHg 36%
    16:00 +8°C° 0 mm 1 mps 657 mmHg 41%
    17:00 +8°C° 0 mm 1 mps 657 mmHg 41%
    18:00 +7°C° 0 mm 1 mps 657 mmHg 42%
    19:00 +6°C° 0 mm 0 mps 657 mmHg 43%
    20:00 +5°C° 0 mm 0 mps 657 mmHg 43%
    21:00 +5°C° 0 mm 0 mps 657 mmHg 43%
    22:00 +5°C° 0 mm 0 mps 657 mmHg 43%
    23:00 +5°C° 0 mm 0 mps 656 mmHg 43%

    18 December, Wednesday

    Time Temperature Precipitation Wind Pressure Humidity
    00:00 +4°C° 0 mm 0 mps 656 mmHg 43%
    01:00 +4°C° 0 mm 0 mps 656 mmHg 43%
    02:00 +4°C° 0 mm 0 mps 656 mmHg 43%
    03:00 +4°C° 0 mm 0 mps 656 mmHg 42%
    04:00 +4°C° 0 mm 0 mps 657 mmHg 42%
    05:00 +4°C° 0 mm 0 mps 657 mmHg 42%
    06:00 +4°C° 0 mm 1 mps 657 mmHg 43%
    07:00 +4°C° 0 mm 1 mps 657 mmHg 44%
    08:00 +5°C° 0 mm 1 mps 658 mmHg 40%
    09:00 +7°C° 0 mm 1 mps 658 mmHg 36%
    10:00 +8°C° 0 mm 1 mps 659 mmHg 32%
    11:00 +7°C° 0 mm 2 mps 658 mmHg 33%
    12:00 +7°C° 0 mm 2 mps 658 mmHg 33%
    13:00 +5°C° 0 mm 3 mps 658 mmHg 34%
    14:00 +5°C° 0 mm 3 mps 658 mmHg 38%
    15:00 +4°C° 0 mm 3 mps 658 mmHg 42%
    16:00 +3°C° 0 mm 3 mps 658 mmHg 46%
    17:00 +3°C° 0 mm 3 mps 659 mmHg 49%
    18:00 +2°C° 0 mm 3 mps 659 mmHg 52%
    19:00 +3°C° 0 mm 2 mps 660 mmHg 55%
    20:00 +3°C° 0 mm 2 mps 660 mmHg 58%
    21:00 +3°C° 0 mm 2 mps 660 mmHg 61%
    22:00 +3°C° 0 mm 1 mps 660 mmHg 64%
    23:00 +3°C° 0 mm 1 mps 660 mmHg 67%

    19 December, Thursday

    Time Temperature Precipitation Wind Pressure Humidity
    00:00 +3°C° 0 mm 1 mps 660 mmHg 70%
    01:00 +3°C° 0 mm 1 mps 660 mmHg 73%
    02:00 +2°C° 0 mm 1 mps 660 mmHg 75%
    03:00 +1°C° 0 mm 0 mps 660 mmHg 77%
    04:00 +1°C° 0 mm 0 mps 660 mmHg 78%
    05:00 +1°C° 0 mm 0 mps 660 mmHg 79%
    06:00 +2°C° 0 mm 1 mps 660 mmHg 81%
    07:00 +2°C° 0 mm 1 mps 660 mmHg 82%
    08:00 +2°C° 0 mm 1 mps 660 mmHg 80%
    09:00 +3°C° 0 mm 1 mps 660 mmHg 79%
    10:00 +3°C° 0 mm 1 mps 661 mmHg 78%
    11:00 +4°C° 0 mm 1 mps 660 mmHg 77%
    12:00 +4°C° 0 mm 1 mps 659 mmHg 76%
    13:00 +3°C° 0 mm 2 mps 659 mmHg 75%
    14:00 +4°C° 0 mm 1 mps 659 mmHg 77%
    15:00 +4°C° 0 mm 1 mps 658 mmHg 80%
    16:00 +3°C° 0 mm 1 mps 658 mmHg 83%
    17:00 +3°C° 0 mm 1 mps 658 mmHg 85%
    18:00 +3°C° 0 mm 1 mps 658 mmHg 88%
    19:00 +3°C° 0 mm 1 mps 658 mmHg 90%
    20:00 +2°C° 0 mm 1 mps 658 mmHg 91%
    21:00 +2°C° 0 mm 1 mps 658 mmHg 91%
    22:00 +1°C° 0 mm 0 mps 658 mmHg 91%
    23:00 +1°C° 0 mm 0 mps 658 mmHg 91%
    Show more